• In Belarus
  • List of Countries
  • For 7 days
  • Water Temperature
  • Satellite Maps
  • Weather Map
  • Weather Widgets
  • user-avatar
    Login

    Hourly Weather Salta

    Today, 23 October, Tuesday

    Time Temperature Precipitation Wind Pressure Humidity
    00:00 +21°C° 0.6 mm 2 mps 650 mmHg 88%
    01:00 +21°C° 0.6 mm 2 mps 650 mmHg 89%
    02:00 +20°C° 0.6 mm 2 mps 650 mmHg 90%
    03:00 +20°C° 0.5 mm 2 mps 650 mmHg 90%
    04:00 +20°C° 0.5 mm 2 mps 651 mmHg 90%
    05:00 +19°C° 0.5 mm 2 mps 651 mmHg 90%
    06:00 +19°C° 0.1 mm 2 mps 651 mmHg 88%
    07:00 +19°C° 0.1 mm 2 mps 651 mmHg 86%
    08:00 +20°C° 0.1 mm 2 mps 652 mmHg 84%
    09:00 +20°C° 0 mm 2 mps 652 mmHg 81%
    10:00 +21°C° 0 mm 2 mps 652 mmHg 77%
    11:00 +21°C° 0 mm 3 mps 652 mmHg 74%
    12:00 +22°C° 0.1 mm 3 mps 651 mmHg 73%
    13:00 +22°C° 0.1 mm 3 mps 651 mmHg 72%
    14:00 +22°C° 0.1 mm 3 mps 650 mmHg 71%
    15:00 +21°C° 0 mm 3 mps 650 mmHg 73%
    16:00 +21°C° 0 mm 3 mps 649 mmHg 75%
    17:00 +20°C° 0 mm 3 mps 649 mmHg 78%
    18:00 +20°C° 0 mm 2 mps 650 mmHg 79%
    19:00 +19°C° 0 mm 2 mps 650 mmHg 81%
    20:00 +19°C° 0 mm 2 mps 651 mmHg 83%
    21:00 +19°C° 0 mm 1 mps 651 mmHg 83%
    22:00 +19°C° 0 mm 1 mps 651 mmHg 84%
    23:00 +19°C° 0 mm 1 mps 651 mmHg 84%

    Tomorrow, 24 October, Wednesday

    Time Temperature Precipitation Wind Pressure Humidity
    00:00 +19°C° 0 mm 1 mps 651 mmHg 84%
    01:00 +19°C° 0 mm 1 mps 651 mmHg 84%
    02:00 +19°C° 0 mm 1 mps 651 mmHg 83%
    03:00 +18°C° 0 mm 1 mps 651 mmHg 83%
    04:00 +18°C° 0 mm 1 mps 650 mmHg 82%
    05:00 +18°C° 0 mm 1 mps 650 mmHg 81%
    06:00 +19°C° 0 mm 1 mps 651 mmHg 74%
    07:00 +21°C° 0 mm 1 mps 651 mmHg 66%
    08:00 +22°C° 0 mm 1 mps 652 mmHg 58%
    09:00 +24°C° 0 mm 2 mps 652 mmHg 53%
    10:00 +26°C° 0 mm 2 mps 652 mmHg 48%
    11:00 +28°C° 0 mm 2 mps 652 mmHg 43%
    12:00 +28°C° 0 mm 3 mps 652 mmHg 43%
    13:00 +29°C° 0 mm 3 mps 651 mmHg 43%
    14:00 +29°C° 0 mm 3 mps 650 mmHg 43%
    15:00 +28°C° 0 mm 3 mps 650 mmHg 48%
    16:00 +27°C° 0 mm 3 mps 649 mmHg 53%
    17:00 +26°C° 0 mm 3 mps 649 mmHg 57%
    18:00 +25°C° 0 mm 3 mps 649 mmHg 65%
    19:00 +24°C° 0 mm 2 mps 649 mmHg 73%
    20:00 +21°C° 0 mm 2 mps 650 mmHg 82%
    21:00 +21°C° 0.1 mm 2 mps 650 mmHg 83%
    22:00 +22°C° 0.1 mm 1 mps 651 mmHg 84%
    23:00 +21°C° 0.1 mm 1 mps 651 mmHg 86%

    Day after tomorrow, 25 October, Thursday

    Time Temperature Precipitation Wind Pressure Humidity
    00:00 +21°C° 0.1 mm 1 mps 651 mmHg 86%
    01:00 +21°C° 0.1 mm 1 mps 650 mmHg 87%
    02:00 +21°C° 0.1 mm 1 mps 650 mmHg 87%
    03:00 +20°C° 0.1 mm 1 mps 650 mmHg 87%
    04:00 +20°C° 0.1 mm 1 mps 650 mmHg 87%
    05:00 +20°C° 0.1 mm 1 mps 650 mmHg 87%
    06:00 +21°C° 0.1 mm 1 mps 651 mmHg 82%
    07:00 +22°C° 0.1 mm 1 mps 651 mmHg 77%
    08:00 +23°C° 0.1 mm 1 mps 652 mmHg 72%
    09:00 +23°C° 0.1 mm 2 mps 652 mmHg 69%
    10:00 +24°C° 0.1 mm 2 mps 652 mmHg 66%
    11:00 +24°C° 0.1 mm 2 mps 652 mmHg 63%
    12:00 +25°C° 0.1 mm 2 mps 651 mmHg 62%
    13:00 +25°C° 0.1 mm 2 mps 650 mmHg 62%
    14:00 +25°C° 0.1 mm 2 mps 650 mmHg 61%
    15:00 +25°C° 0.1 mm 2 mps 649 mmHg 63%
    16:00 +25°C° 0.1 mm 2 mps 649 mmHg 65%
    17:00 +24°C° 0.1 mm 2 mps 648 mmHg 67%
    18:00 +23°C° 0.1 mm 2 mps 649 mmHg 72%
    19:00 +21°C° 0.1 mm 2 mps 649 mmHg 77%
    20:00 +20°C° 0.1 mm 2 mps 650 mmHg 82%
    21:00 +20°C° 0.1 mm 2 mps 650 mmHg 84%
    22:00 +20°C° 0.1 mm 2 mps 651 mmHg 85%
    23:00 +19°C° 0.1 mm 2 mps 651 mmHg 86%

    26 October, Friday

    Time Temperature Precipitation Wind Pressure Humidity
    00:00 +20°C° 0.1 mm 1 mps 651 mmHg 87%
    01:00 +20°C° 0.1 mm 1 mps 651 mmHg 87%
    02:00 +20°C° 0.1 mm 1 mps 650 mmHg 87%
    03:00 +20°C° 0 mm 1 mps 650 mmHg 86%
    04:00 +19°C° 0 mm 1 mps 650 mmHg 85%
    05:00 +19°C° 0 mm 1 mps 650 mmHg 84%
    06:00 +20°C° 0 mm 1 mps 651 mmHg 80%
    07:00 +21°C° 0 mm 1 mps 651 mmHg 75%
    08:00 +21°C° 0 mm 2 mps 652 mmHg 70%
    09:00 +21°C° 0.1 mm 2 mps 652 mmHg 68%
    10:00 +23°C° 0.1 mm 2 mps 652 mmHg 65%
    11:00 +24°C° 0.1 mm 3 mps 652 mmHg 63%
    12:00 +24°C° 0.1 mm 3 mps 652 mmHg 63%
    13:00 +25°C° 0.1 mm 3 mps 651 mmHg 63%
    14:00 +25°C° 0.1 mm 3 mps 651 mmHg 63%
    15:00 +24°C° 0.1 mm 3 mps 650 mmHg 66%
    16:00 +23°C° 0.1 mm 2 mps 650 mmHg 69%
    17:00 +23°C° 0.1 mm 2 mps 649 mmHg 72%
    18:00 +21°C° 0.1 mm 2 mps 650 mmHg 76%
    19:00 +20°C° 0.1 mm 2 mps 651 mmHg 81%
    20:00 +19°C° 0.1 mm 2 mps 651 mmHg 85%
    21:00 +19°C° 0.1 mm 2 mps 652 mmHg 85%
    22:00 +19°C° 0.1 mm 2 mps 652 mmHg 86%
    23:00 +18°C° 0.1 mm 2 mps 653 mmHg 86%

    27 October, Saturday

    Time Temperature Precipitation Wind Pressure Humidity
    00:00 +19°C° 0.1 mm 1 mps 652 mmHg 87%
    01:00 +19°C° 0.1 mm 1 mps 652 mmHg 87%
    02:00 +19°C° 0.1 mm 1 mps 651 mmHg 88%
    03:00 +18°C° 0 mm 1 mps 651 mmHg 88%
    04:00 +18°C° 0 mm 1 mps 651 mmHg 87%
    05:00 +18°C° 0 mm 1 mps 651 mmHg 87%
    06:00 +19°C° 0 mm 1 mps 651 mmHg 83%
    07:00 +19°C° 0 mm 2 mps 652 mmHg 80%
    08:00 +19°C° 0 mm 2 mps 652 mmHg 76%
    09:00 +20°C° 0 mm 2 mps 652 mmHg 72%
    10:00 +21°C° 0 mm 2 mps 652 mmHg 68%
    11:00 +22°C° 0 mm 3 mps 651 mmHg 64%
    12:00 +22°C° 0 mm 3 mps 651 mmHg 65%
    13:00 +22°C° 0 mm 3 mps 650 mmHg 66%
    14:00 +22°C° 0 mm 3 mps 649 mmHg 67%
    15:00 +22°C° 0 mm 3 mps 649 mmHg 69%
    16:00 +22°C° 0 mm 3 mps 648 mmHg 70%
    17:00 +23°C° 0 mm 2 mps 648 mmHg 71%
    18:00 +21°C° 0.1 mm 2 mps 649 mmHg 75%
    19:00 +20°C° 0.1 mm 2 mps 649 mmHg 78%
    20:00 +20°C° 0.1 mm 1 mps 650 mmHg 82%
    21:00 +20°C° 0.1 mm 1 mps 650 mmHg 82%
    22:00 +20°C° 0.1 mm 1 mps 651 mmHg 83%
    23:00 +20°C° 0.1 mm 1 mps 651 mmHg 83%

    28 October, Sunday

    Time Temperature Precipitation Wind Pressure Humidity
    00:00 +19°C° 0 mm 1 mps 651 mmHg 84%
    01:00 +19°C° 0 mm 1 mps 650 mmHg 84%
    02:00 +19°C° 0 mm 1 mps 650 mmHg 84%
    03:00 +19°C° 0 mm 1 mps 650 mmHg 85%
    04:00 +19°C° 0 mm 1 mps 651 mmHg 86%
    05:00 +18°C° 0 mm 1 mps 651 mmHg 87%
    06:00 +19°C° 0 mm 1 mps 651 mmHg 82%
    07:00 +20°C° 0 mm 1 mps 652 mmHg 77%
    08:00 +20°C° 0 mm 2 mps 653 mmHg 73%
    09:00 +21°C° 0.1 mm 2 mps 653 mmHg 70%
    10:00 +23°C° 0.1 mm 2 mps 652 mmHg 67%
    11:00 +24°C° 0.1 mm 2 mps 652 mmHg 64%
    12:00 +24°C° 0.2 mm 3 mps 651 mmHg 65%
    13:00 +24°C° 0.2 mm 3 mps 651 mmHg 66%
    14:00 +24°C° 0.2 mm 3 mps 650 mmHg 68%
    15:00 +22°C° 0.1 mm 3 mps 649 mmHg 71%
    16:00 +21°C° 0.1 mm 2 mps 649 mmHg 73%
    17:00 +21°C° 0.1 mm 2 mps 649 mmHg 76%
    18:00 +20°C° 0 mm 2 mps 649 mmHg 79%
    19:00 +19°C° 0 mm 2 mps 650 mmHg 82%
    20:00 +20°C° 0 mm 1 mps 650 mmHg 85%
    21:00 +19°C° 0 mm 1 mps 650 mmHg 85%
    22:00 +19°C° 0 mm 1 mps 650 mmHg 86%
    23:00 +19°C° 0 mm 1 mps 650 mmHg 87%

    29 October, Monday

    Time Temperature Precipitation Wind Pressure Humidity
    00:00 +18°C° 0 mm 1 mps 650 mmHg 87%
    01:00 +18°C° 0 mm 1 mps 649 mmHg 87%
    02:00 +18°C° 0 mm 1 mps 649 mmHg 86%
    03:00 +18°C° 0 mm 1 mps 649 mmHg 86%
    04:00 +18°C° 0 mm 1 mps 649 mmHg 85%
    05:00 +18°C° 0 mm 1 mps 649 mmHg 84%
    06:00 +19°C° 0 mm 1 mps 650 mmHg 78%
    07:00 +20°C° 0 mm 1 mps 650 mmHg 72%
    08:00 +21°C° 0 mm 2 mps 651 mmHg 67%
    09:00 +23°C° 0 mm 2 mps 651 mmHg 63%
    10:00 +24°C° 0 mm 2 mps 651 mmHg 59%
    11:00 +26°C° 0 mm 3 mps 651 mmHg 55%
    12:00 +26°C° 0 mm 3 mps 650 mmHg 54%
    13:00 +27°C° 0 mm 3 mps 649 mmHg 53%
    14:00 +28°C° 0 mm 3 mps 649 mmHg 53%
    15:00 +27°C° 0 mm 3 mps 648 mmHg 55%
    16:00 +27°C° 0 mm 3 mps 648 mmHg 58%
    17:00 +26°C° 0 mm 3 mps 647 mmHg 60%
    18:00 +25°C° 0 mm 3 mps 647 mmHg 66%
    19:00 +23°C° 0 mm 2 mps 647 mmHg 73%
    20:00 +21°C° 0 mm 2 mps 648 mmHg 79%
    21:00 +20°C° 0 mm 2 mps 648 mmHg 80%
    22:00 +21°C° 0 mm 1 mps 648 mmHg 82%
    23:00 +21°C° 0 mm 1 mps 648 mmHg 83%
    Show more